QPF
0.00 0.00 0.00 0.00 0.00 0.00 0.00 0.00 0.00 0.00 0.00 0.00 0.00 0.00 0.00 0.00 0.00 0.00 0.00 0.01 0.02 0.02 0.02 0.02 0.03 0.02 0.02 0.02 0.02 0.01 0.02 0.01 0.02 0.02 0.02 0.02 0.02 0.03 0.06 0.06 0.05 0.04 0.03 0.02
0.01 0.00 0.00 0.00 0.00 0.00 0.01 0.01 0.01 0.00 0.00 0.00 0.00 0.00 0.00 0.00 0.01 0.01 0.01 0.01 0.01 0.01 0.02 0.02 0.03 0.03 0.03 0.03 0.03 0.03 0.02 0.02 0.02 0.02 0.02 0.01 0.02 0.01 0.02 0.04 0.04 0.04 0.03 0.02
0.01 0.00 0.00 0.00 0.00 0.01 0.01 0.01 0.01 0.00 0.00 0.01 0.01 0.00 0.00 0.00 0.00 0.00 0.01 0.01 0.01 0.01 0.01 0.02 0.03 0.04 0.05 0.04 0.04 0.04 0.03 0.04 0.03 0.03 0.02 0.02 0.02 0.02 0.01 0.01 0.02 0.03 0.03 0.03
0.02 0.01 0.01 0.01 0.01 0.01 0.01 0.00 0.01 0.01 0.02 0.02 0.01 0.01 0.00 0.00 0.00 0.00 0.00 0.01 0.01 0.01 0.02 0.02 0.03 0.04 0.05 0.05 0.04 0.03 0.03 0.03 0.04 0.04 0.04 0.03 0.02 0.02 0.02 0.01 0.01 0.02 0.02 0.02
0.03 0.02 0.01 0.02 0.01 0.01 0.01 0.01 0.01 0.02 0.02 0.03 0.02 0.01 0.00 0.00 0.00 0.01 0.01 0.01 0.01 0.01 0.02 0.03 0.04 0.04 0.05 0.05 0.04 0.03 0.03 0.03 0.03 0.04 0.04 0.05 0.03 0.02 0.02 0.02 0.01 0.01 0.01 0.01
0.02 0.01 0.02 0.02 0.01 0.01 0.02 0.02 0.02 0.02 0.03 0.03 0.01 0.01 0.00 0.01 0.01 0.00 0.01 0.01 0.01 0.01 0.02 0.03 0.04 0.03 0.03 0.03 0.04 0.03 0.03 0.03 0.03 0.03 0.03 0.06 0.07 0.05 0.02 0.02 0.01 0.01 0.01 0.01
0.01 0.01 0.01 0.01 0.01 0.01 0.02 0.03 0.03 0.03 0.02 0.01 0.00 0.00 0.01 0.01 0.01 0.01 0.01 0.01 0.01 0.01 0.02 0.02 0.02 0.02 0.02 0.03 0.03 0.03 0.03 0.03 0.03 0.02 0.02 0.02 0.04 0.08 0.08 0.06 0.03 0.02 0.02 0.01
0.01 0.01 0.00 0.01 0.01 0.01 0.01 0.02 0.03 0.02 0.01 0.00 0.00 0.01 0.00 0.00 0.01 0.00 0.01 0.01 0.01 0.01 0.02 0.02 0.02 0.02 0.02 0.03 0.03 0.03 0.03 0.02 0.02 0.02 0.02 0.02 0.02 0.03 0.06 0.08 0.08 0.06 0.04 0.04
0.01 0.01 0.00 0.00 0.00 0.01 0.02 0.01 0.01 0.02 0.02 0.01 0.01 0.01 0.00 0.00 0.01 0.00 0.00 0.01 0.01 0.01 0.01 0.01 0.02 0.02 0.02 0.02 0.02 0.02 0.02 0.02 0.02 0.02 0.02 0.02 0.02 0.01 0.01 0.02 0.03 0.05 0.05 0.04
0.01 0.01 0.00 0.00 0.00 0.00 0.01 0.01 0.02 0.03 0.03 0.01 0.01 0.00 0.00 0.00 0.00 0.01 0.01 0.01 0.01 0.01 0.01 0.01 0.01 0.01 0.02 0.02 0.02 0.02 0.02 0.02 0.02 0.02 0.01 0.02 0.02 0.02 0.01 0.01 0.01 0.01 0.02 0.03
0.01 0.02 0.01 0.00 0.00 0.00 0.00 0.01 0.01 0.02 0.02 0.01 0.01 0.00 0.00 0.00 0.01 0.01 0.01 0.01 0.01 0.01 0.01 0.01 0.01 0.01 0.01 0.02 0.01 0.01 0.01 0.01 0.01 0.01 0.01 0.01 0.01 0.02 0.01 0.01 0.01 0.00 0.01 0.01
0.02 0.02 0.02 0.01 0.00 0.00 0.00 0.01 0.01 0.02 0.03 0.01 0.01 0.01 0.01 0.01 0.01 0.01 0.01 0.01 0.01 0.01 0.01 0.01 0.01 0.01 0.01 0.01 0.01 0.01 0.01 0.01 0.01 0.01 0.01 0.01 0.01 0.01 0.01 0.01 0.01 0.01 0.00 0.00
0.03 0.05 0.04 0.02 0.01 0.01 0.01 0.01 0.01 0.01 0.02 0.02 0.02 0.01 0.00 0.01 0.01 0.01 0.01 0.01 0.01 0.01 0.01 0.01 0.01 0.01 0.01 0.01 0.01 0.00 0.00 0.00 0.00 0.01 0.01 0.01 0.01 0.01 0.01 0.02 0.02 0.01 0.01 0.00
0.03 0.04 0.03 0.02 0.01 0.01 0.01 0.01 0.01 0.01 0.02 0.02 0.01 0.00 0.00 0.01 0.01 0.01 0.01 0.01 0.01 0.01 0.01 0.01 0.01 0.00 0.00 0.00 0.00 0.00 0.00 0.00 0.00 0.00 0.00 0.01 0.01 0.01 0.01 0.01 0.02 0.02 0.01 0.01
0.03 0.04 0.02 0.01 0.01 0.01 0.01 0.01 0.01 0.01 0.01 0.01 0.01 0.00 0.00 0.01 0.01 0.01 0.01 0.01 0.01 0.01 0.01 0.01 0.01 0.00 0.00 0.00 0.00 0.00 0.00 0.00 0.00 0.00 0.00 0.00 0.01 0.01 0.01 0.01 0.01 0.02 0.03 0.02
0.03 0.03 0.01 0.01 0.00 0.00 0.01 0.01 0.01 0.01 0.01 0.01 0.01 0.01 0.00 0.00 0.00 0.00 0.00 0.01 0.01 0.01 0.01 0.00 0.00 0.00 0.00 0.00 0.00 0.00 0.00 0.00 0.00 0.00 0.00 0.00 0.01 0.01 0.01 0.02 0.02 0.02 0.02 0.03
0.03 0.03 0.03 0.02 0.00 0.01 0.01 0.00 0.00 0.00 0.01 0.01 0.01 0.01 0.01 0.00 0.00 0.00 0.00 0.01 0.01 0.01 0.01 0.00 0.00 0.00 0.00 0.00 0.00 0.00 0.00 0.00 0.00 0.00 0.00 0.00 0.00 0.01 0.01 0.01 0.02 0.02 0.02 0.02
0.03 0.04 0.05 0.04 0.02 0.02 0.01 0.00 0.00 0.00 0.00 0.01 0.01 0.01 0.01 0.01 0.01 0.01 0.01 0.01 0.01 0.01 0.01 0.01 0.01 0.00 0.00 0.00 0.00 0.00 0.00 0.00 0.00 0.00 0.00 0.00 0.00 0.01 0.01 0.01 0.01 0.02 0.02 0.02
0.02 0.03 0.06 0.05 0.03 0.01 0.00 0.00 0.01 0.01 0.01 0.01 0.01 0.01 0.01 0.01 0.01 0.01 0.01 0.01 0.01 0.01 0.01 0.01 0.01 0.00 0.00 0.00 0.00 0.00 0.00 0.00 0.00 0.00 0.00 0.00 0.00 0.01 0.01 0.01 0.01 0.01 0.02 0.02
0.01 0.03 0.06 0.07 0.04 0.01 0.00 0.00 0.00 0.01 0.01 0.01 0.01 0.01 0.01 0.01 0.01 0.01 0.00 0.01 0.01 0.01 0.01 0.00 0.00 0.00 0.00 0.00 0.00 0.00 0.00 0.00 0.00 0.00 0.00 0.00 0.01 0.01 0.01 0.01 0.01 0.01 0.01 0.02
0.02 0.04 0.05 0.05 0.04 0.01 0.00 0.00 0.00 0.01 0.01 0.01 0.01 0.01 0.01 0.01 0.01 0.01 0.01 0.01 0.01 0.00 0.00 0.00 0.00 0.00 0.00 0.00 0.00 0.00 0.00 0.00 0.00 0.00 0.00 0.00 0.01 0.01 0.01 0.01 0.01 0.01 0.01 0.02
0.01 0.03 0.03 0.03 0.04 0.02 0.01 0.01 0.01 0.01 0.01 0.01 0.01 0.01 0.01 0.01 0.01 0.01 0.01 0.01 0.01 0.00 0.00 0.00 0.00 0.00 0.00 0.00 0.00 0.00 0.00 0.00 0.01 0.01 0.01 0.01 0.01 0.01 0.01 0.01 0.01 0.01 0.01 0.02
0.01 0.02 0.02 0.02 0.02 0.01 0.01 0.01 0.01 0.01 0.01 0.01 0.01 0.01 0.01 0.01 0.01 0.01 0.01 0.01 0.01 0.01 0.01 0.01 0.01 0.01 0.01 0.01 0.01 0.01 0.01 0.01 0.01 0.01 0.01 0.01 0.01 0.01 0.01 0.01 0.01 0.01 0.01 0.02
0.01 0.01 0.02 0.02 0.01 0.01 0.01 0.01 0.01 0.01 0.01 0.01 0.01 0.01 0.01 0.01 0.01 0.01 0.01 0.01 0.01 0.01 0.01 0.01 0.01 0.01 0.01 0.01 0.01 0.02 0.02 0.01 0.01 0.01 0.01 0.01 0.01 0.01 0.02 0.02 0.02 0.02 0.02 0.02
0.02 0.02 0.02 0.02 0.02 0.01 0.01 0.01 0.02 0.02 0.01 0.01 0.01 0.01 0.01 0.01 0.01 0.01 0.01 0.01 0.01 0.01 0.01 0.01 0.01 0.01 0.01 0.01 0.02 0.02 0.02 0.02 0.01 0.01 0.01 0.01 0.01 0.01 0.02 0.02 0.02 0.02 0.02 0.02
0.01 0.02 0.02 0.02 0.02 0.02 0.02 0.02 0.02 0.02 0.02 0.02 0.01 0.01 0.01 0.01 0.01 0.01 0.01 0.01 0.01 0.01 0.01 0.01 0.01 0.01 0.01 0.01 0.01 0.02 0.02 0.02 0.01 0.01 0.01 0.01 0.01 0.01 0.01 0.02 0.02 0.02 0.02 0.02
MSLP
1019.03 1019.29 1019.51 1019.62 1019.58 1019.38 1019.05 1018.68 1018.37 1018.27 1018.47 1019.05 1020.03 1021.35 1022.92 1024.59 1026.22 1027.65 1028.82 1029.68 1030.25 1030.59 1030.78 1030.92 1031.05 1031.22 1031.42 1031.62 1031.77 1031.83 1031.77 1031.61 1031.38 1031.13 1030.91 1030.77 1030.74 1030.81 1030.95 1031.11 1031.22 1031.25 1031.15 1030.94
1019.14 1019.41 1019.63 1019.72 1019.64 1019.37 1018.95 1018.49 1018.10 1017.94 1018.12 1018.74 1019.79 1021.24 1022.98 1024.83 1026.64 1028.25 1029.55 1030.49 1031.10 1031.42 1031.56 1031.61 1031.65 1031.74 1031.87 1032.02 1032.15 1032.22 1032.18 1032.04 1031.83 1031.57 1031.34 1031.17 1031.10 1031.13 1031.23 1031.37 1031.48 1031.51 1031.44 1031.26
1019.35 1019.62 1019.83 1019.89 1019.75 1019.40 1018.89 1018.33 1017.86 1017.64 1017.81 1018.46 1019.61 1021.20 1023.11 1025.16 1027.17 1028.96 1030.41 1031.45 1032.09 1032.40 1032.47 1032.42 1032.35 1032.32 1032.36 1032.45 1032.55 1032.61 1032.60 1032.49 1032.29 1032.05 1031.80 1031.60 1031.48 1031.46 1031.51 1031.60 1031.68 1031.72 1031.67 1031.52
1019.68 1019.95 1020.13 1020.14 1019.93 1019.49 1018.89 1018.23 1017.69 1017.43 1017.59 1018.28 1019.51 1021.24 1023.32 1025.57 1027.78 1029.75 1031.35 1032.49 1033.18 1033.47 1033.48 1033.33 1033.14 1032.99 1032.92 1032.93 1032.99 1033.04 1033.04 1032.95 1032.78 1032.54 1032.28 1032.05 1031.87 1031.77 1031.75 1031.78 1031.82 1031.84 1031.80 1031.68
1020.12 1020.37 1020.52 1020.47 1020.19 1019.67 1018.98 1018.25 1017.65 1017.35 1017.51 1018.24 1019.55 1021.39 1023.62 1026.04 1028.42 1030.55 1032.29 1033.53 1034.27 1034.57 1034.53 1034.30 1034.00 1033.74 1033.57 1033.50 1033.51 1033.53 1033.53 1033.45 1033.29 1033.05 1032.77 1032.49 1032.24 1032.06 1031.96 1031.92 1031.90 1031.89 1031.84 1031.74
1020.62 1020.84 1020.94 1020.84 1020.50 1019.92 1019.18 1018.41 1017.78 1017.46 1017.63 1018.39 1019.75 1021.66 1023.99 1026.52 1029.02 1031.28 1033.13 1034.46 1035.26 1035.58 1035.53 1035.25 1034.89 1034.54 1034.29 1034.15 1034.10 1034.10 1034.07 1033.99 1033.83 1033.57 1033.26 1032.92 1032.61 1032.34 1032.15 1032.02 1031.94 1031.89 1031.82 1031.72
1021.10 1021.29 1021.36 1021.22 1020.85 1020.25 1019.50 1018.73 1018.10 1017.80 1017.99 1018.76 1020.14 1022.07 1024.42 1026.99 1029.55 1031.86 1033.78 1035.18 1036.04 1036.41 1036.38 1036.10 1035.72 1035.34 1035.04 1034.85 1034.75 1034.71 1034.67 1034.57 1034.38 1034.10 1033.75 1033.35 1032.96 1032.62 1032.34 1032.13 1031.99 1031.88 1031.78 1031.67
1021.52 1021.68 1021.72 1021.57 1021.20 1020.63 1019.92 1019.20 1018.63 1018.37 1018.58 1019.35 1020.71 1022.60 1024.90 1027.43 1029.94 1032.25 1034.18 1035.62 1036.53 1036.96 1037.00 1036.77 1036.42 1036.06 1035.75 1035.55 1035.43 1035.36 1035.29 1035.15 1034.94 1034.62 1034.22 1033.77 1033.32 1032.90 1032.55 1032.27 1032.06 1031.90 1031.77 1031.64
1021.85 1021.98 1022.00 1021.87 1021.54 1021.04 1020.43 1019.81 1019.34 1019.15 1019.39 1020.15 1021.45 1023.24 1025.41 1027.80 1030.19 1032.41 1034.29 1035.73 1036.69 1037.20 1037.33 1037.20 1036.94 1036.65 1036.39 1036.21 1036.09 1036.00 1035.89 1035.72 1035.46 1035.10 1034.66 1034.17 1033.66 1033.19 1032.78 1032.45 1032.19 1031.99 1031.82 1031.66
1022.08 1022.19 1022.22 1022.11 1021.86 1021.47 1020.99 1020.51 1020.17 1020.08 1020.36 1021.09 1022.29 1023.93 1025.91 1028.09 1030.29 1032.35 1034.13 1035.53 1036.52 1037.11 1037.37 1037.38 1037.26 1037.08 1036.91 1036.78 1036.68 1036.58 1036.45 1036.24 1035.94 1035.54 1035.06 1034.52 1033.98 1033.48 1033.03 1032.66 1032.37 1032.14 1031.94 1031.75
1022.28 1022.37 1022.39 1022.33 1022.16 1021.89 1021.56 1021.25 1021.05 1021.06 1021.39 1022.08 1023.17 1024.62 1026.37 1028.29 1030.25 1032.11 1033.75 1035.09 1036.09 1036.77 1037.16 1037.34 1037.38 1037.35 1037.30 1037.24 1037.18 1037.08 1036.92 1036.68 1036.34 1035.90 1035.38 1034.83 1034.27 1033.75 1033.29 1032.91 1032.60 1032.34 1032.12 1031.90
1022.52 1022.58 1022.60 1022.57 1022.47 1022.32 1022.13 1021.97 1021.91 1022.02 1022.38 1023.04 1024.00 1025.27 1026.77 1028.42 1030.12 1031.75 1033.23 1034.50 1035.50 1036.26 1036.78 1037.13 1037.34 1037.47 1037.55 1037.58 1037.56 1037.47 1037.29 1037.02 1036.64 1036.16 1035.63 1035.06 1034.51 1033.99 1033.54 1033.16 1032.84 1032.57 1032.33 1032.08
1022.87 1022.89 1022.90 1022.87 1022.82 1022.74 1022.67 1022.63 1022.69 1022.88 1023.27 1023.88 1024.74 1025.82 1027.09 1028.49 1029.94 1031.36 1032.69 1033.87 1034.88 1035.70 1036.35 1036.85 1037.22 1037.50 1037.69 1037.80 1037.82 1037.74 1037.55 1037.24 1036.83 1036.34 1035.80 1035.23 1034.69 1034.19 1033.76 1033.39 1033.08 1032.81 1032.54 1032.26
1023.36 1023.35 1023.32 1023.27 1023.22 1023.18 1023.17 1023.21 1023.34 1023.59 1024.00 1024.58 1025.34 1026.28 1027.36 1028.54 1029.79 1031.03 1032.22 1033.33 1034.33 1035.20 1035.94 1036.56 1037.07 1037.46 1037.75 1037.92 1037.97 1037.90 1037.69 1037.36 1036.93 1036.43 1035.89 1035.34 1034.82 1034.35 1033.95 1033.60 1033.30 1033.02 1032.74 1032.44
1023.99 1023.93 1023.85 1023.76 1023.68 1023.62 1023.62 1023.69 1023.86 1024.14 1024.56 1025.11 1025.81 1026.64 1027.59 1028.62 1029.71 1030.81 1031.90 1032.94 1033.93 1034.83 1035.63 1036.33 1036.92 1037.40 1037.74 1037.94 1038.01 1037.93 1037.71 1037.37 1036.93 1036.43 1035.91 1035.39 1034.91 1034.48 1034.10 1033.78 1033.48 1033.20 1032.91 1032.58
1024.69 1024.59 1024.45 1024.30 1024.16 1024.06 1024.03 1024.09 1024.26 1024.56 1024.97 1025.52 1026.18 1026.96 1027.82 1028.76 1029.74 1030.76 1031.77 1032.76 1033.72 1034.62 1035.44 1036.17 1036.80 1037.30 1037.66 1037.87 1037.93 1037.84 1037.61 1037.27 1036.84 1036.37 1035.88 1035.40 1034.96 1034.57 1034.22 1033.92 1033.63 1033.34 1033.02 1032.67
1025.34 1025.22 1025.04 1024.82 1024.62 1024.46 1024.39 1024.42 1024.58 1024.87 1025.29 1025.84 1026.50 1027.26 1028.09 1028.98 1029.91 1030.86 1031.82 1032.77 1033.69 1034.55 1035.35 1036.06 1036.67 1037.15 1037.49 1037.68 1037.72 1037.62 1037.39 1037.06 1036.67 1036.23 1035.79 1035.37 1034.98 1034.62 1034.31 1034.01 1033.72 1033.42 1033.08 1032.70
1025.81 1025.70 1025.50 1025.25 1025.00 1024.80 1024.69 1024.70 1024.84 1025.14 1025.57 1026.13 1026.80 1027.57 1028.40 1029.28 1030.19 1031.11 1032.02 1032.91 1033.77 1034.57 1035.31 1035.96 1036.50 1036.92 1037.21 1037.36 1037.38 1037.27 1037.06 1036.76 1036.41 1036.03 1035.66 1035.29 1034.95 1034.64 1034.35 1034.06 1033.76 1033.43 1033.07 1032.65
1026.02 1025.94 1025.76 1025.52 1025.27 1025.06 1024.94 1024.94 1025.09 1025.39 1025.84 1026.43 1027.12 1027.91 1028.75 1029.63 1030.52 1031.41 1032.27 1033.10 1033.88 1034.60 1035.24 1035.79 1036.24 1036.58 1036.80 1036.91 1036.91 1036.80 1036.62 1036.37 1036.08 1035.78 1035.47 1035.17 1034.88 1034.60 1034.32 1034.04 1033.72 1033.37 1032.97 1032.52
1025.92 1025.90 1025.78 1025.60 1025.40 1025.23 1025.14 1025.17 1025.34 1025.67 1026.14 1026.74 1027.45 1028.25 1029.10 1029.97 1030.84 1031.68 1032.48 1033.23 1033.92 1034.54 1035.07 1035.51 1035.86 1036.12 1036.28 1036.35 1036.33 1036.25 1036.10 1035.91 1035.70 1035.47 1035.23 1034.99 1034.75 1034.50 1034.23 1033.93 1033.59 1033.21 1032.78 1032.30
1025.54 1025.61 1025.58 1025.50 1025.39 1025.31 1025.30 1025.38 1025.60 1025.95 1026.45 1027.06 1027.77 1028.56 1029.39 1030.23 1031.05 1031.84 1032.57 1033.23 1033.82 1034.33 1034.76 1035.10 1035.36 1035.54 1035.66 1035.70 1035.69 1035.64 1035.54 1035.42 1035.28 1035.12 1034.95 1034.76 1034.55 1034.31 1034.04 1033.72 1033.36 1032.95 1032.49 1031.98
1024.98 1025.13 1025.22 1025.27 1025.29 1025.33 1025.42 1025.59 1025.86 1026.25 1026.75 1027.36 1028.05 1028.80 1029.58 1030.36 1031.12 1031.83 1032.48 1033.05 1033.55 1033.96 1034.30 1034.56 1034.75 1034.89 1034.98 1035.02 1035.03 1035.02 1034.98 1034.92 1034.85 1034.75 1034.62 1034.47 1034.27 1034.04 1033.75 1033.42 1033.03 1032.60 1032.12 1031.60
1024.34 1024.59 1024.79 1024.98 1025.14 1025.32 1025.52 1025.78 1026.11 1026.53 1027.02 1027.60 1028.24 1028.92 1029.62 1030.32 1030.99 1031.62 1032.18 1032.68 1033.09 1033.44 1033.71 1033.92 1034.08 1034.20 1034.29 1034.35 1034.40 1034.43 1034.44 1034.44 1034.41 1034.36 1034.26 1034.12 1033.93 1033.68 1033.38 1033.02 1032.62 1032.17 1031.68 1031.16
1023.77 1024.08 1024.39 1024.70 1025.00 1025.30 1025.62 1025.95 1026.33 1026.76 1027.23 1027.76 1028.32 1028.91 1029.52 1030.12 1030.69 1031.23 1031.71 1032.14 1032.50 1032.80 1033.05 1033.24 1033.40 1033.53 1033.64 1033.73 1033.82 1033.89 1033.94 1033.98 1033.98 1033.94 1033.86 1033.71 1033.51 1033.24 1032.92 1032.54 1032.13 1031.67 1031.19 1030.69
1023.34 1023.69 1024.07 1024.47 1024.88 1025.29 1025.69 1026.10 1026.50 1026.92 1027.36 1027.81 1028.29 1028.78 1029.27 1029.77 1030.25 1030.70 1031.12 1031.50 1031.83 1032.12 1032.36 1032.56 1032.74 1032.90 1033.03 1033.16 1033.28 1033.39 1033.47 1033.52 1033.54 1033.50 1033.41 1033.25 1033.02 1032.74 1032.39 1032.01 1031.58 1031.14 1030.68 1030.21
1023.09 1023.44 1023.86 1024.32 1024.81 1025.29 1025.75 1026.19 1026.61 1027.00 1027.39 1027.77 1028.15 1028.53 1028.93 1029.32 1029.72 1030.11 1030.48 1030.82 1031.14 1031.43 1031.69 1031.92 1032.12 1032.31 1032.48 1032.63 1032.77 1032.89 1032.98 1033.04 1033.05 1033.00 1032.89 1032.71 1032.47 1032.17 1031.82 1031.43 1031.02 1030.59 1030.16 1029.73
Thickness
5569 5571 5570 5568 5563 5565 5563 5564 5566 5567 5559 5555 5562 5565 5566 5563 5560 5561 5561 5560 5558 5556 5554 5552 5551 5550 5549 5549 5549 5550 5550 5549 5548 5549 5549 5548 5548 5547 5546 5546 5546 5546 5547 5547
5563 5561 5559 5554 5551 5550 5551 5552 5557 5557 5547 5546 5552 5558 5561 5557 5553 5553 5553 5552 5550 5548 5545 5542 5541 5541 5541 5540 5540 5541 5541 5540 5539 5539 5538 5538 5537 5536 5535 5534 5534 5533 5534 5534
5557 5551 5545 5543 5543 5542 5545 5545 5545 5542 5537 5533 5536 5558 5558 5554 5548 5545 5544 5542 5540 5538 5537 5534 5532 5530 5530 5530 5530 5530 5530 5529 5529 5528 5526 5526 5525 5524 5523 5523 5522 5521 5521 5521
5542 5537 5533 5535 5536 5534 5540 5536 5530 5527 5529 5539 5530 5551 5562 5551 5544 5541 5538 5535 5532 5529 5526 5524 5522 5520 5520 5519 5518 5518 5518 5518 5518 5517 5516 5516 5516 5515 5514 5512 5511 5510 5509 5509
5533 5525 5525 5527 5526 5523 5525 5518 5517 5517 5519 5521 5522 5524 5557 5540 5539 5537 5533 5527 5523 5519 5516 5514 5512 5510 5509 5507 5507 5506 5506 5506 5506 5505 5505 5505 5505 5504 5502 5501 5500 5499 5498 5498
5519 5513 5513 5515 5511 5509 5506 5507 5506 5505 5510 5516 5520 5518 5546 5541 5531 5529 5524 5519 5513 5509 5506 5503 5501 5499 5497 5495 5494 5494 5494 5494 5494 5493 5493 5493 5493 5492 5491 5490 5489 5488 5488 5486
5514 5509 5503 5500 5503 5501 5501 5508 5514 5515 5514 5524 5508 5506 5527 5523 5515 5511 5508 5505 5500 5497 5495 5493 5490 5489 5487 5484 5483 5482 5482 5482 5481 5481 5481 5481 5480 5480 5479 5479 5478 5477 5477 5476
5509 5513 5500 5493 5495 5495 5494 5498 5504 5507 5515 5520 5496 5504 5519 5504 5496 5492 5489 5487 5485 5483 5482 5479 5478 5477 5475 5473 5472 5471 5470 5470 5469 5469 5469 5468 5467 5467 5467 5466 5466 5465 5465 5465
5501 5502 5487 5482 5481 5484 5484 5486 5483 5483 5476 5482 5506 5504 5500 5491 5486 5481 5478 5476 5473 5471 5469 5468 5466 5464 5463 5461 5460 5458 5457 5457 5456 5456 5455 5455 5455 5454 5454 5453 5453 5453 5452 5452
5485 5484 5481 5472 5470 5469 5472 5475 5470 5472 5477 5489 5501 5500 5504 5489 5485 5477 5471 5466 5462 5459 5457 5455 5454 5451 5449 5448 5446 5445 5445 5444 5444 5444 5443 5442 5442 5442 5442 5441 5441 5441 5440 5440
5469 5471 5472 5465 5465 5471 5460 5458 5462 5465 5463 5474 5486 5500 5487 5482 5477 5469 5462 5455 5450 5447 5444 5442 5440 5437 5435 5435 5433 5432 5432 5431 5431 5430 5430 5429 5430 5429 5429 5429 5429 5428 5428 5428
5457 5461 5468 5467 5455 5448 5454 5456 5454 5458 5455 5448 5462 5482 5469 5462 5459 5453 5449 5444 5438 5435 5431 5428 5426 5424 5422 5422 5421 5420 5419 5419 5418 5417 5417 5417 5417 5416 5417 5417 5416 5416 5416 5415
5443 5446 5459 5467 5450 5434 5433 5436 5436 5437 5443 5446 5452 5472 5454 5446 5443 5439 5436 5433 5428 5423 5420 5417 5413 5411 5410 5408 5407 5406 5406 5406 5405 5404 5404 5403 5403 5404 5403 5403 5403 5403 5402 5402
5438 5439 5448 5464 5466 5445 5431 5425 5421 5422 5434 5443 5447 5461 5452 5442 5436 5431 5426 5422 5418 5412 5408 5405 5401 5399 5397 5395 5394 5393 5392 5392 5391 5390 5390 5390 5390 5389 5389 5388 5388 5388 5388 5388
5428 5432 5431 5437 5435 5428 5427 5424 5416 5413 5427 5433 5447 5444 5446 5436 5428 5421 5415 5410 5405 5401 5397 5393 5390 5387 5384 5382 5381 5379 5379 5377 5377 5377 5377 5377 5376 5375 5374 5374 5374 5374 5374 5375
5415 5419 5414 5419 5418 5412 5412 5419 5416 5412 5414 5418 5423 5428 5430 5419 5412 5407 5402 5397 5393 5390 5386 5382 5378 5374 5372 5369 5367 5365 5365 5364 5363 5363 5362 5362 5361 5361 5360 5360 5359 5359 5360 5360
5407 5404 5408 5425 5410 5402 5424 5426 5416 5411 5407 5408 5416 5424 5416 5407 5401 5397 5391 5384 5381 5378 5374 5369 5365 5361 5358 5355 5353 5352 5350 5350 5350 5349 5348 5347 5346 5346 5345 5345 5345 5346 5346 5346
5397 5396 5400 5407 5401 5412 5441 5412 5409 5405 5404 5399 5400 5402 5395 5390 5386 5378 5375 5373 5370 5365 5361 5357 5353 5349 5345 5342 5339 5338 5336 5336 5336 5336 5334 5333 5332 5331 5331 5330 5331 5331 5331 5331
5390 5392 5395 5395 5404 5422 5424 5402 5393 5391 5399 5392 5386 5385 5381 5371 5370 5374 5363 5358 5355 5352 5348 5344 5340 5336 5332 5328 5326 5324 5324 5324 5323 5322 5321 5319 5318 5317 5317 5317 5316 5316 5316 5317
5377 5379 5386 5386 5395 5414 5427 5389 5375 5379 5393 5385 5374 5372 5366 5358 5374 5379 5352 5343 5339 5335 5331 5328 5325 5322 5318 5315 5313 5311 5311 5310 5309 5308 5307 5305 5304 5303 5303 5303 5302 5302 5301 5302
5374 5373 5375 5382 5387 5407 5389 5365 5365 5385 5396 5370 5361 5358 5351 5350 5355 5344 5332 5327 5323 5319 5316 5314 5311 5307 5304 5301 5299 5298 5297 5296 5294 5293 5292 5291 5290 5289 5289 5288 5288 5287 5287 5287
5382 5379 5372 5374 5378 5397 5360 5353 5365 5373 5355 5348 5346 5343 5339 5337 5328 5321 5316 5312 5309 5305 5302 5300 5297 5294 5290 5287 5285 5285 5283 5281 5279 5278 5278 5277 5276 5275 5275 5274 5273 5272 5272 5272
5371 5373 5376 5373 5382 5364 5347 5348 5343 5337 5336 5334 5332 5327 5323 5319 5313 5308 5303 5299 5295 5292 5289 5286 5283 5280 5276 5273 5271 5270 5269 5267 5265 5264 5263 5263 5262 5261 5260 5259 5259 5258 5257 5258
5352 5339 5348 5349 5356 5347 5337 5331 5326 5322 5320 5318 5314 5310 5307 5303 5299 5295 5290 5287 5283 5279 5276 5272 5269 5266 5263 5260 5258 5256 5254 5252 5251 5250 5249 5248 5247 5247 5246 5245 5244 5244 5244 5244
5349 5331 5334 5338 5342 5333 5330 5323 5318 5311 5306 5301 5298 5295 5292 5289 5285 5281 5277 5273 5270 5266 5262 5258 5255 5253 5250 5247 5244 5242 5240 5238 5236 5235 5234 5234 5233 5233 5232 5231 5230 5230 5229 5229
5332 5325 5329 5344 5336 5327 5327 5312 5304 5299 5294 5289 5284 5280 5277 5274 5270 5267 5263 5259 5256 5252 5248 5245 5242 5239 5236 5233 5231 5229 5226 5224 5222 5221 5221 5220 5219 5218 5218 5217 5216 5215 5215 5215